Location: Krakow
(50.0830°N, 19.9170°E)
Time: 18:46:53
(UTC+01:00)

SR - Pass Details

Date: 16 February 2023
Orbit: 582 x 867 km, 66.7° (Epoch: 20 March)

Event Time Altitude Azimuth Distance (km) Brightness Sun altitude
Rises 18:24:16 0° 326° (NW) 2,864 ? -14.1°
Reaches altitude 10° 18:26:42 10° 335° (NNW) 1,935 ? -14.5°
Maximum altitude 18:30:42 37° 43° (NE) 927 ? -15.2°
Enters shadow 18:32:10 28° 85° (E) 1,113 ? -15.4°
Drops below altitude 10° 18:34:39 10° 112° (ESE) 1,904 - -15.8°
Sets 18:37:01 0° 121° (ESE) 2,812 - -16.2°
